Location: Beaurecueil
(43.5122°N, 5.5450°E)
Time: 14:29:38
(UTC+00:00)

Meteor 2-13 Rocket - Pass Details

Date: 18 September 2020
Orbit: 936 x 958 km, 82.5° (Epoch: 29 October)

Event Time Altitude Azimuth Distance (km) Brightness Sun altitude
Rises 19:58:40 0° 351° (N) 3,649 8.0 -24.6°
Reaches altitude 10° 20:01:10 10° 351° (N) 2,699 7.3 -25.0°
Maximum altitude 20:07:22 88° 263° (W) 963 4.4 -26.0°
Enters shadow 20:09:03 52° 175° (S) 1,179 4.6 -26.2°
